Home   Weather   Reykjavik   Past weeks

Flag for Iceland Past Weather in Reykjavik, Iceland — Yesterday and Last 2 Weeks

Now
36 °F

Scattered showers. More clouds than sun.


Feels Like: 29 °F
Forecast: 36 / 39 °F
Wind: 8 mph from Southeast

Location: Reykjavik Airport

Current Time: Jan 22, 2017 at 12:41:00 pm

Latest Report: Jan 22, 2017 at 12:00 pm


Visibility: N/A

Pressure: 29.95 "Hg

Humidity: 81%

Dew Point: 30 °F

Location of ReykjavikLocation

Past Weather in Reykjavik — Graph

°F

Reykjavik Temperature Yesterday

Maximum temperature yesterday: 41 °F (at 1:00 am)
Minimum temperature yesterday: 37 °F (at 8:00 am)
Average temperature yesterday: 39 °F

High & Low Weather Summary for the Past Weeks

 TemperatureHumidityPressure
High46 °F (Jan 15, 12:00 pm)100% (Jan 18, 4:00 am)30.07 "Hg (Jan 18, 4:00 am)
Low18 °F (Jan 12, 6:00 am)54% (Jan 12, 3:00 pm)28.94 "Hg (Jan 9, 12:00 am)
Average33 °F78%29.62 "Hg
* Reported Jan 7 11:00 am — Jan 22 11:00 am, Reykjavik, Weather by CustomWeather, © 2017

Note: Actual official high and low records may vary slightly from our data, if they occured in-between our weather recording intervals... More about our weather records

Advertising

Reykjavik Weather History for the Previous 24 Hours

Scroll right to see more
 ConditionsComfort  
Time TempWeatherWind HumidityBarometerVisibility
11:00 am
Sun, Jan 22
36 °FBroken clouds.5 mph81%29.95 "HgN/A
10:00 am36 °FPassing clouds.6 mph87%29.95 "HgN/A
9:00 am36 °FSprinkles. Passing clouds.9 mph87%29.92 "HgN/A
8:00 am36 °FPartly cloudy.6 mph87%29.92 "HgN/A
7:00 am36 °FPassing clouds.5 mph81%29.92 "HgN/A
6:00 am34 °FPartly cloudy.6 mph87%29.89 "HgN/A
5:00 am36 °FPartly cloudy.7 mph87%29.89 "HgN/A
4:00 am36 °FPassing clouds.7 mph81%29.89 "HgN/A
3:00 am36 °FPassing clouds.13 mph81%29.86 "HgN/A
2:00 am37 °FPassing clouds.13 mph75%29.83 "HgN/A
1:00 am37 °FPartly cloudy.14 mph75%29.80 "HgN/A
12:00 am39 °FLight rain. Mostly cloudy.15 mph70%29.80 "HgN/A
11:00 pm
Sat, Jan 21
37 °FLight rain. Mostly cloudy.15 mph81%29.77 "HgN/A
10:00 pm37 °FLight rain. Mostly cloudy.15 mph87%29.74 "HgN/A
9:00 pm37 °FScattered showers. Mostly cloudy.14 mph87%29.71 "HgN/A
8:00 pm37 °FSprinkles. Partly cloudy.13 mph87%29.68 "HgN/A
7:00 pm37 °FScattered showers. Partly cloudy.17 mph87%29.65 "HgN/A
6:00 pm37 °FSprinkles. Passing clouds.16 mph93%29.62 "Hg5 mi
5:00 pm39 °FScattered showers. Partly cloudy.16 mph87%29.56 "Hg6 mi
4:04 pm39 °FRain showers. Overcast.22 mph87%29.56 "Hg2 mi
3:00 pm39 °FLight rain. More clouds than sun.20 mph87%29.50 "Hg6 mi
2:00 pm37 °FRain. More clouds than sun.17 mph93%29.50 "Hg2 mi
1:00 pm37 °FRain. More clouds than sun.21 mph87%29.50 "Hg2 mi
12:00 pm37 °FLight rain. Overcast.20 mph87%29.50 "Hg6 mi
Weather by CustomWeather, © 2017

See weather overviewHow to use our weather pages